User: anonymous   Login
Location: Luxembourg
(49.6117°N, 6.1300°E)
Time: 06:49:23
(UTC+01:00)
Language:

Tiangong 2 - Orbit

View from above orbital plane
View from above orbital plane
View from above satellite
View from above satellite

Ground track
Ground track

The orbit data is extracted from the following two-line orbital elements,

1 41765U 16057A   18349.69358711  .00003491  00000-0  46200-4 0  9990
2 41765  42.7855 340.6342 0006156  70.5305  95.8499 15.60220941128360
Epoch (UTC): 15 December 2018 16:38:45
Eccentricity: 0.0006156
inclination: 42.7855°
perigee height: 383 km
apogee height: 391 km
right ascension of ascending node: 340.6342°
argument of perigee: 70.5305°
revolutions per day: 15.60220941
mean anomaly at epoch: 95.8499°
orbit number at epoch: 12836

The dashed part of the orbit path shows where the satellite is in the earth's shadow,  

DLR